Location: Abraham Lincoln Continuation High School
(33.9711°N, 117.3662°W)
Time: 06:29:02
(UTC+00:00)

Cosmos 1680 Rocket - Pass Details

Date: 20 January 2021
Orbit: 761 x 780 km, 74.1° (Epoch: 01 March)

Event Time Altitude Azimuth Distance (km) Brightness Sun altitude
Rises 03:18:07 0° 345° (NNW) 3,239 6.8 -26.8°
Reaches altitude 10° 03:20:31 10° 347° (NNW) 2,306 6.0 -27.3°
Enters shadow 03:22:44 26° 351° (N) 1,477 4.9 -27.7°
